| time (UTC) | temp F | wind direction | speed knots | gust knots | rain 1hr in | rain 24hr in | rain mn in | humidity % | barometer mb |
| 20260506193050 | 52 | 0 | 0.0 | 0.0 | 0.00 | 0.00 | 0.00 | 96 | 1013.7 |
| 20260506191552 | 52 | 0 | 0.0 | 0.0 | 0.00 | 0.00 | 0.00 | 96 | 1012.9 |
| 20260506190046 | 52 | 0 | 0.0 | 0.0 | 0.00 | 0.00 | 0.00 | 97 | 1013.9 |
| 20260506184543 | 52 | 0 | 0.0 | 0.0 | 0.00 | 0.00 | 0.00 | 96 | 1013.3 |
| 20260506183051 | 52 | 0 | 0.0 | 0.9 | 0.00 | 0.00 | 0.00 | 96 | 1014.2 |
| 20260506181557 | 52 | 0 | 0.0 | 0.9 | 0.00 | 0.00 | 0.00 | 96 | 1014.1 |
| 20260506180049 | 52 | 0 | 0.0 | 0.0 | 0.00 | 0.00 | 0.00 | 96 | 1014.0 |
| 20260506174547 | 52 | 0 | 0.0 | 0.0 | 0.00 | 0.00 | 0.00 | 96 | 1013.9 |
| 20260506173107 | 52 | 0 | 0.0 | 0.9 | 0.00 | 0.00 | 0.00 | 96 | 1013.8 |
| 20260506171552 | 52 | 0 | 0.0 | 0.0 | 0.00 | 0.00 | 0.00 | 96 | 1013.0 |
| 20260506170058 | 52 | 0 | 0.0 | 0.0 | 0.00 | 0.00 | 0.00 | 96 | 1013.2 |
| 20260506164547 | 52 | 0 | 0.0 | 0.0 | 0.00 | 0.00 | 0.00 | 96 | 1013.3 |
| 20260506163048 | 52 | 0 | 0.0 | 0.9 | 0.00 | 0.00 | 0.00 | 96 | 1013.2 |
| 20260506161543 | 52 | 0 | 0.0 | 0.0 | 0.00 | 0.00 | 0.00 | 96 | 1013.1 |
| 20260506160107 | 52 | 0 | 0.0 | 0.0 | 0.00 | 0.00 | 0.00 | 96 | 1013.4 |
| 20260506154548 | 52 | 0 | 0.0 | 0.0 | 0.00 | 0.00 | 0.00 | 96 | 1013.5 |
| 20260506153040 | 51 | 0 | 0.0 | 0.9 | 0.00 | 0.00 | 0.00 | 96 | 1013.2 |
| 20260506151546 | 52 | 0 | 0.0 | 0.0 | 0.00 | 0.00 | 0.00 | 96 | 1013.3 |
| 20260506150048 | 52 | 0 | 0.0 | 0.0 | 0.00 | 0.00 | 0.00 | 96 | 1013.2 |
| 20260506144545 | 51 | 0 | 0.0 | 0.9 | 0.00 | 0.00 | 0.00 | 96 | 1013.1 |
| 20260506143042 | 51 | 0 | 0.0 | 0.9 | 0.00 | 0.00 | 0.00 | 96 | 1012.9 |
| 20260506141538 | 52 | 0 | 0.0 | 0.0 | 0.00 | 0.00 | 0.00 | 96 | 1012.6 |
| 20260506140041 | 51 | 0 | 0.0 | 0.9 | 0.00 | 0.00 | 0.00 | 96 | 1011.8 |
| 20260506134547 | 51 | 0 | 0.0 | 0.9 | 0.00 | 0.00 | 0.00 | 96 | 1011.5 |
| 20260506133051 | 51 | 0 | 0.0 | 0.0 | 0.00 | 0.00 | 0.00 | 96 | 1011.3 |
| 20260506131556 | 51 | 0 | 0.0 | 0.0 | 0.00 | 0.00 | 0.00 | 95 | 1011.2 |
| 20260506130053 | 0 | 0.0 | 0.0 | 0.00 | 0.00 | 0.00 | 1010.8 | ||
| 20260506124547 | 0 | 0.0 | 0.0 | 0.00 | 0.00 | 0.00 | 1010.2 | ||
| 20260506123045 | 0 | 0.0 | 0.0 | 0.00 | 0.00 | 0.00 | 1012.3 | ||
| 20260506121544 | 0 | 0.0 | 0.0 | 0.00 | 0.00 | 0.00 | 1012.0 | ||
| 20260506120044 | 0 | 0.0 | 0.0 | 0.00 | 0.00 | 0.00 | 1011.9 | ||
| 20260506114538 | 0 | 0.0 | 0.0 | 0.00 | 0.00 | 0.00 | 1010.8 | ||
| 20260506113047 | 0 | 0.0 | 0.0 | 0.00 | 0.00 | 0.00 | 1010.5 | ||
| 20260506111551 | 0 | 0.0 | 0.0 | 0.00 | 0.00 | 0.00 | 1010.5 | ||
| 20260506110049 | 0 | 0.0 | 0.0 | 0.00 | 0.00 | 0.00 | 1009.7 | ||
| 20260506104555 | 0 | 0.0 | 0.0 | 0.00 | 0.00 | 0.00 | 1009.2 | ||
| 20260506103044 | 0 | 0.0 | 0.0 | 0.00 | 0.00 | 0.00 | 1009.6 | ||
| 20260506101551 | 53 | 0 | 0.0 | 0.9 | 0.00 | 0.00 | 0.00 | 94 | 1009.9 |
| 20260506100045 | 53 | 0 | 0.0 | 0.9 | 0.00 | 0.00 | 0.00 | 94 | 1009.6 |
| 20260506094607 | 54 | 334 | 0.0 | 0.9 | 0.00 | 0.00 | 0.00 | 94 | 1009.5 |
| 20260506093044 | 54 | 0 | 0.0 | 0.9 | 0.00 | 0.00 | 0.00 | 93 | 1009.3 |
| 20260506091549 | 55 | 345 | 0.0 | 0.9 | 0.00 | 0.00 | 0.00 | 92 | 1009.4 |
| 20260506090046 | 57 | 332 | 0.0 | 1.7 | 0.00 | 0.00 | 0.00 | 91 | 1009.1 |
| 20260506084547 | 60 | 349 | 0.9 | 4.3 | 0.00 | 0.00 | 0.00 | 90 | 1008.9 |
| 20260506083046 | 65 | 39 | 0.0 | 0.9 | 0.00 | 0.00 | 0.00 | 93 | 1008.1 |
| 20260506081544 | 66 | 0 | 0.0 | 0.9 | 0.00 | 0.00 | 0.00 | 91 | 1007.8 |
| 20260506073042 | 70 | 236 | 0.9 | 3.5 | 0.00 | 0.00 | 0.00 | 78 | 1006.3 |
| 20260506071548 | 70 | 238 | 1.7 | 3.5 | 0.00 | 0.00 | 0.00 | 77 | 1006.0 |
| 20260506061551 | 70 | 232 | 0.9 | 4.3 | 0.00 | 0.00 | 0.00 | 76 | 1006.2 |
| 20260506060106 | 70 | 248 | 0.9 | 3.5 | 0.00 | 0.00 | 0.00 | 75 | 1006.7 |
| 20260506044547 | 70 | 236 | 2.6 | 5.2 | 0.00 | 0.00 | 0.00 | 74 | 1006.9 |
| 20260506043042 | 69 | 194 | 1.7 | 4.3 | 0.00 | 0.00 | 0.00 | 75 | 1007.2 |
| 20260506041550 | 68 | 253 | 1.7 | 4.3 | 0.00 | 0.00 | 0.00 | 76 | 1007.6 |
| 20260506040044 | 68 | 235 | 1.7 | 4.3 | 0.00 | 0.00 | 0.00 | 77 | 1007.5 |
| 20260506034541 | 68 | 165 | 1.7 | 3.5 | 0.00 | 0.00 | 0.00 | 77 | 1007.4 |
| 20260506033049 | 69 | 233 | 0.9 | 4.3 | 0.00 | 0.00 | 0.00 | 75 | 1008.1 |
| 20260506031548 | 68 | 234 | 0.9 | 3.5 | 0.00 | 0.00 | 0.00 | 76 | 1008.0 |
| 20260506030043 | 68 | 235 | 0.9 | 3.5 | 0.00 | 0.00 | 0.00 | 77 | 1007.9 |
| 20260506024546 | 68 | 208 | 0.9 | 3.5 | 0.00 | 0.00 | 0.00 | 78 | 1007.9 |
| 20260506023047 | 68 | 233 | 0.9 | 2.6 | 0.00 | 0.00 | 0.00 | 76 | 1007.9 |
| 20260506021541 | 67 | 212 | 0.9 | 3.5 | 0.00 | 0.00 | 0.00 | 77 | 1007.4 |
| 20260506020040 | 66 | 224 | 0.9 | 2.6 | 0.00 | 0.00 | 0.00 | 79 | 1007.5 |
| 20260506014546 | 65 | 225 | 0.9 | 2.6 | 0.00 | 0.00 | 0.00 | 83 | 1007.5 |
| 20260506013046 | 64 | 235 | 0.9 | 2.6 | 0.00 | 0.00 | 0.00 | 86 | 1007.8 |
| 20260506011544 | 62 | 0 | 0.0 | 0.9 | 0.00 | 0.00 | 0.00 | 89 | 1007.8 |
| 20260506010046 | 62 | 0 | 0.0 | 0.0 | 0.00 | 0.00 | 0.00 | 91 | 1007.9 |
| 20260506004549 | 62 | 0 | 0.0 | 0.0 | 0.00 | 0.00 | 0.00 | 91 | 1007.9 |
| 20260506003047 | 62 | 0 | 0.0 | 0.0 | 0.00 | 0.00 | 0.00 | 90 | 1007.9 |
| 20260506001546 | 62 | 0 | 0.0 | 0.9 | 0.00 | 0.00 | 0.00 | 89 | 1007.9 |
| 20260506000044 | 63 | 0 | 0.0 | 0.9 | 0.00 | 0.00 | 0.00 | 87 | 1008.0 |
| 20260505234548 | 65 | 0 | 0.0 | 0.9 | 0.00 | 0.00 | 0.00 | 83 | 1008.3 |
| 20260505233045 | 67 | 240 | 0.9 | 2.6 | 0.00 | 0.00 | 0.00 | 74 | 1007.8 |
| 20260505231557 | 67 | 232 | 0.9 | 1.7 | 0.00 | 0.00 | 0.00 | 73 | 1007.7 |
| 20260505230055 | 66 | 219 | 0.0 | 1.7 | 0.00 | 0.00 | 0.00 | 75 | 1008.0 |
| 20260505224544 | 65 | 187 | 0.0 | 0.9 | 0.00 | 0.00 | 0.00 | 77 | 1008.0 |
| 20260505223048 | 64 | 220 | 0.0 | 0.9 | 0.00 | 0.00 | 0.00 | 79 | 1008.2 |
| 20260505221548 | 64 | 195 | 0.0 | 0.0 | 0.00 | 0.00 | 0.00 | 81 | 1008.5 |
| 20260505220047 | 63 | 0 | 0.0 | 0.9 | 0.00 | 0.00 | 0.00 | 83 | 1008.6 |
| 20260505214550 | 63 | 0 | 0.0 | 0.9 | 0.00 | 0.00 | 0.00 | 81 | 1008.8 |
| 20260505213056 | 65 | 221 | 1.7 | 4.3 | 0.00 | 0.00 | 0.00 | 75 | 1008.2 |
| 20260505211547 | 68 | 240 | 1.7 | 3.5 | 0.00 | 0.00 | 0.00 | 65 | 1009.6 |
| 20260505210055 | 70 | 219 | 1.7 | 4.3 | 0.00 | 0.00 | 0.00 | 60 | 1009.1 |
| 20260505204554 | 71 | 251 | 0.9 | 5.2 | 0.00 | 0.00 | 0.00 | 59 | 1009.1 |
| 20260505203045 | 72 | 237 | 1.7 | 5.2 | 0.00 | 0.00 | 0.00 | 56 | 1009.0 |
| 20260505201547 | 72 | 228 | 1.7 | 5.2 | 0.00 | 0.00 | 0.00 | 56 | 1009.1 |
| 20260505200044 | 72 | 236 | 1.7 | 5.2 | 0.00 | 0.00 | 0.00 | 55 | 1009.0 |
| 20260505194546 | 72 | 226 | 1.7 | 7.8 | 0.00 | 0.00 | 0.00 | 57 | 1009.4 |